Location: Unspecified
(0.0000°N, 0.0000°E)
Time: 14:37:43
(UTC+00:00)

S-56A Canister/Altair - Visible Passes

Search period start: 02 February 2023 00:00
Search period end: 12 February 2023 00:00
Orbit: 639 x 2493 km, 38.9° (Epoch: 01 February)

Date Brightness Start Highest point End Pass type
(mag) Time Alt. Az. Time Alt. Az. Time Alt. Az.
02 Feb 9.7 18:35:09 10° NW 18:46:15 70° NE 19:01:02 10° SE visible
02 Feb 10.7 20:40:52 10° WNW 20:53:08 44° SW 21:07:10 10° SSE visible
02 Feb 11.7 22:55:18 10° WSW 23:02:09 14° SSW 23:08:55 10° S visible
03 Feb 10.4 05:27:46 10° SSW 05:33:36 22° SSE 05:38:05 10° E visible
03 Feb 10.5 20:07:26 10° WNW 20:19:24 49° SW 20:33:48 10° SSE visible
03 Feb 11.7 22:19:58 10° WSW 22:28:11 17° SSW 22:36:29 10° S visible
04 Feb 10.6 04:54:43 10° SSW 05:00:33 20° SSE 05:05:06 10° ESE visible
04 Feb 10.4 19:34:09 10° WNW 19:45:43 55° SW 20:00:19 10° SE visible
04 Feb 11.6 21:45:08 10° WSW 21:54:14 19° SSW 22:03:43 10° S visible
05 Feb 10.8 04:21:38 10° SSW 04:27:26 18° SSE 04:32:01 10° ESE visible
05 Feb 10.2 19:01:02 10° WNW 19:12:06 62° SW 19:26:44 10° SE visible
05 Feb 11.5 21:10:41 10° WSW 21:20:19 22° SSW 21:30:45 10° SSE visible
06 Feb 10.9 03:48:29 10° S 03:54:13 17° SSE 03:58:50 10° ESE visible
06 Feb 10.0 18:28:04 10° WNW 18:38:33 69° SW 18:53:04 10° SE visible
06 Feb 11.4 20:36:33 10° W 20:46:27 24° SSW 20:57:37 10° SSE visible
07 Feb 11.1 03:15:19 10° S 03:20:53 15° SSE 03:25:29 10° ESE visible
07 Feb 8.8 05:18:37 10° SW 05:27:18 61° SE 05:33:04 10° ENE visible
07 Feb 11.3 20:02:40 10° W 20:12:38 27° SSW 20:24:21 10° SSE visible
08 Feb 11.2 02:42:09 10° S 02:47:27 14° SSE 02:51:58 10° SE visible
08 Feb 9.2 04:45:10 10° SW 04:54:23 51° SE 05:00:29 10° ENE visible
08 Feb 11.2 19:29:03 10° W 19:38:52 30° SSW 19:50:59 10° SSE visible
09 Feb 11.3 02:08:58 10° S 02:13:55 13° SSE 02:18:14 10° SE visible
09 Feb 9.5 04:11:42 10° SSW 04:21:21 45° SE 04:27:50 10° ENE visible
09 Feb 11.1 18:55:36 10° W 19:05:11 33° SW 19:17:32 10° SSE visible
09 Feb 11.9 21:11:13 10° SW 21:14:59 11° SSW 21:18:52 10° S visible
10 Feb 11.4 01:35:52 10° S 01:40:17 12° SSE 01:44:14 10° SE visible
10 Feb 9.8 03:38:13 10° SSW 03:48:14 40° SE 03:55:04 10° ENE visible
10 Feb 8.6 05:44:50 10° WSW 05:52:56 43° NW 05:58:30 10° NNE visible
10 Feb 11.0 18:22:21 10° W 18:31:36 37° SW 18:44:00 10° SSE visible
10 Feb 11.8 20:35:47 10° SW 20:40:56 13° SSW 20:46:22 10° S visible
11 Feb 11.5 01:02:53 10° S 01:06:31 11° SSE 01:09:52 10° SE visible
11 Feb 10.1 03:06:11 14° SSW 03:15:01 35° SSE 03:22:13 10° E visible
11 Feb 8.5 05:10:59 10° WSW 05:20:12 55° NW 05:26:17 10° NNE visible
11 Feb 11.8 20:01:00 10° SW 20:06:57 14° SSW 20:13:26 10° S visible
